ITAMSAT 1 - Orbit

View from above orbital plane
View from above orbital plane
View from above satellite
View from above satellite

Ground track
Ground track

The orbit data is extracted from the following two-line orbital elements,

1 22826U 93061D   13145.11812722  .00000165  00000-0  81294-4 0  1483
2 22826 098.6109 089.6797 0008594 357.0004 095.2624 14.29847406 25466
Epoch (UTC): 25 May 2013 02:50:06
Eccentricity: 0.0008594
inclination: 98.6109°
perigee height: 786 km
apogee height: 798 km
right ascension of ascending node: 89.6797°
argument of perigee: 357.0004°
revolutions per day: 14.29847406
mean anomaly at epoch: 95.2624°
orbit number at epoch: 2546

The dashed part of the orbit path shows where the satellite is in the earth's shadow,  

Developed and maintained by Chris Peat, Heavens-Above GmbH. Please read the updated FAQ before sending e-mail. Imprint. DLR